Regional Weather Roundup
Issued by NWS

Home | Current Version | Previous Version | Graphics & Text | Print | Product List | Glossary On
Versions: 1 2 3 4 5 6 7 8 9 10 11 12 13 14 15 16 17 18 19 20 21 22 23 24 25 26 27 28 29 30 31 32 33 34 35 36 37 38 39 40 41 42 43 44 45 46 47 48 49 50
000
ASUS44 KMEG 100810
RWRTN
TENNESSEE HOURLY STATE WEATHER ROUNDUP
NATIONAL WEATHER SERVICE MEMPHIS TN
200 AM CST SUN DEC 10 2017

TNZ002-004-019-021-049-052-054-088>092-100900-
WEST TENNESSEE

CITY           SKY/WX    TMP DP  RH WIND       PRES   REMARKS
MEMPHIS INTL   CLEAR     28  23  81 S5        30.27R WCI  23
NWS MEMPHIS      N/A     25 N/A N/A MISG        N/A
JACKSON        PTCLDY    21  19  92 CALM      30.27R
DYERSBURG      CLEAR     24  21  88 CALM      30.28S
SOMERVILLE     CLEAR     25  21  86 CALM      30.25R
COVINGTON      CLEAR     25  21  86 CALM      30.27S
UNION CITY     CLEAR     19  18  93 S3        30.26S
BOLIVAR        CLEAR     23  21  93 CALM      30.26R
PARIS          PTCLDY    19  16  86 SW3       30.23F
HUNTINGDON     PTCLDY    21  18  86 CALM      30.24S
LEXINGTON      CLEAR     21  19  93 CALM      30.26S
SAVANNAH       MOCLDY    21  21 100 CALM      30.27R
$$

TNZ008-025-027-028-033-062-065-066-100900-
NORTH MIDDLE TENNESSEE

CITY           SKY/WX    TMP DP  RH WIND       PRES   REMARKS
NASHVILLE      CLEAR     29  17  61 NW3       30.25R
PORTLAND         N/A     27  18  69 CALM      30.20S
CLARKSVILLE    PTCLDY    26  16  65 SW3       30.23S
SMYRNA         PTCLDY    25  18  74 W6        30.25R WCI  18
COOKEVILLE     CLEAR     21  19  93 CALM      30.19R
GALLATIN       PTCLDY    27  19  74 CALM      30.25R
CROSSVILLE     CLEAR     24  14  65 NW5       30.15R WCI  18
$$

TNZ061-075-076-078-094-096-097-100900-
SOUTH MIDDLE TENNESSEE

CITY           SKY/WX    TMP DP  RH WIND       PRES   REMARKS
FAYETTEVILLE   PTCLDY    27  19  74 CALM      30.21S
TULLAHOMA      PTCLDY    19  18  93 CALM      30.21R
WINCHESTER     CLEAR     21  18  86 CALM      30.21S
MCMINNVILLE    MOCLDY    21  19  93 CALM      30.21R
COLUMBIA       CLEAR     21  21 100 CALM      30.24R
SHELBYVILLE    CLEAR     21  19  93 CALM      30.23R
$$

TNZ017-018-042-046-047-100900-
NORTHEAST TENNESSEE

CITY           SKY/WX    TMP DP  RH WIND       PRES   REMARKS
TRI CITIES     CLOUDY    29  19  66 W10       30.10R WCI  20
ELIZABETHTON   CLOUDY    30  19  64 W10G22    30.08R WCI  21
$$

TNZ012-013-036-069-073-074-100900-
CENTRAL EAST TENNESSEE

CITY           SKY/WX    TMP DP  RH WIND       PRES   REMARKS
KNOXVILLE      CLOUDY    31  18  58 NW7       30.17R WCI  24
OAK RIDGE      CLOUDY    31  16  54 VRB3      30.20R
DOWNTOWN KNOXV CLOUDY    32  18  55 NW7       30.20R WCI  26
GATLINBURG     CLOUDY    32  21  64 W5        30.18R WCI  27
MORRISTOWN     CLOUDY    30  19  64 NW12      30.14R WCI  21
JACKSBORO      CLOUDY    30  18  59 VRB5      30.20R WCI  25
$$

TNZ083-085-099-100900-
SOUTHEAST TENNESSEE

CITY           SKY/WX    TMP DP  RH WIND       PRES   REMARKS
CHATTANOOGA    PTCLDY    30  18  60 NW3       30.22R
DAYTON         CLOUDY    34  21  60 W5        30.20R WCI  30
$$

SKY/WX REPORTED AS FAIR MEANS FEW OR NO CLOUDS BELOW
12 THOUSAND FEET.





USA.gov is the U.S. government's official web portal to all federal, state and local government web resources and services.